Погода в Торяном

Россия / Волгоградская область     51°02′07″N   43°31′45″E
темп.,
°C
ветер,
м/с
пор.,
м/с
влажн.,
%
обл.,
%
осадки,
мм/ч
давл.,
гПа
погр.,
м
22 апреля, чт
чт2200:00+8ю37885 0.2 1019135
03:00+7ююз338872 0.2 101929
06:00+8ююз238194 0.0 102150
09:00+13юз236171 0.0 1022569
12:00+15юз345317 0.8 10221558
15:00+15ююз2455100 1.2 1021277
18:00+14юз1162100 0.3 102213
21:00+12ю2266100 0.3 102312
23 апреля, пт
пт2300:00+12ю1166100 0.0 102211
03:00+11юв1171100 0.0 102210
06:00+11вюв3375100 0.0 102268
09:00+14вюв2359100 0.2 1022376
12:00+16юв3445100 0.6 10212010
15:00+15ю1257100 0.8 1019263
18:00+12юз247797 1.0 1019112
21:00+10ю227822 1.1 101818
24 апреля, сб
сб2400:00+9ю228380 0.0 101733
03:00+8ю33885 0.0 101537
06:00+8ю3587100 0.0 1014134
09:00+13ююз5868100 0.6 1013525
12:00+15юз81150100 0.3 10111861
15:00+10зсз798599 1.2 1012589
18:00+9з687272 0.8 10131177
21:00+8зюз367369 1.0 1013268
25 апреля, вс
вс2500:00+5зюз488190 0.1 1014171
03:00+5з6888100 1.1 1015604
06:00+4зюз479274 0.9 1016497
09:00+8зюз577027 0.9 1016956
12:00+11з794982 0.4 10172093
15:00+11з71040100 0.4 10172413
18:00+10з4750100 0.0 1018575
21:00+7юз3358100 0.0 101928
26 апреля, пн
пн2600:00+5юз2263100 0.0 101825
03:00+4ю3365100 0.0 101724
06:00+5ю3567100 0.0 1017111
09:00+10ююз57462 0.0 10161295
12:00+12юз7939100 0.0 10152561
15:00+9зсз786987 0.9 10151231
18:00+8з586374 0.4 10161210
21:00+5зюз36710 0.5 101695